Regional Weather Roundup
Issued by NWS

Home | Current Version | Previous Version | Text Only | Print | Product List | Glossary On
Versions: 1 2 3 4 5 6 7 8 9 10 11 12 13 14 15 16 17 18 19 20 21 22 23 24 25 26 27
000
ASUS45 KBOU 181406
RWRCO

WEATHER ROUNDUP FOR COLORADO
NATIONAL WEATHER SERVICE DENVER/BOULDER CO
800 AM MDT FRI APR 18 2014

NOTE: "FAIR" INDICATES FEW OR NO CLOUDS BELOW 12000 FEET WITH NO
SIGNIFICANT WEATHER AND/OR OBSTRUCTIONS TO VISIBILITY.

COZ001>005-013-030-031-181500-
...NORTHWEST COLORADO...

CITY           SKY/WX    TMP DP  RH WIND       PRES   REMARKS
CRAIG          PTSUNNY   44  29  55 VRB5      30.05R
HAYDEN         MOSUNNY   39  27  60 E10       30.09S
MEEKER         MOSUNNY   39  30  70 NE6       30.06R
MOUNT WERNER   PTSUNNY   39  18  41 SE12G18   30.25R
STEAMBOAT SPGS PTSUNNY   33  24  67 CALM      30.10S
WALDEN         PTSUNNY   37  23  56 S5        30.13S
$$

COZ006>008-011-181500-
...WEST CENTRAL VALLEYS...

CITY           SKY/WX    TMP DP  RH WIND       PRES   REMARKS
GRAND JUNCTION PTSUNNY   49  27  42 E13       30.02R
MONTROSE       MOSUNNY   44  28  53 S6        30.11R
EAGLE          MOSUNNY   36  27  69 CALM      30.18S
RIFLE          MOSUNNY   38  29  70 CALM      30.09R
DELTA          MOSUNNY   44  30  57 CALM      30.10R
NUCLA            N/A     41  28  60 CALM      30.14R
$$

COZ017>023-064>068-181500-
...SOUTHWEST COLORADO...

CITY           SKY/WX    TMP DP  RH WIND       PRES   REMARKS
DURANGO        PTSUNNY   40  22  48 CALM      30.19R
CORTEZ         SUNNY     40  27  59 CALM      30.12R
PAGOSA SPRINGS PTSUNNY   40  22  49 SW3       30.22S
TELLURIDE      MOSUNNY   45  23  42 CALM      30.24R
WOLF CREEK PAS MOSUNNY   32  18  55 SW10      30.36S WCI  24
$$

COZ009-010-012-014-032>034-037-058>063-181500-
...CENTRAL COLORADO...

CITY           SKY/WX    TMP DP  RH WIND       PRES   REMARKS
ASPEN          MOSUNNY   43  25  49 CALM      30.15S
BUENA VISTA    SUNNY     38  25  60 NW3       30.21S
COPPER MTN     SUNNY     36  19  51 S13G18    30.34S
BERTHOUD PASS  FAIR      30  21  69 W23       30.34R WCI  17
COTTONWOOD PAS SUNNY     43  19  39 CALM      30.27R
GUNNISON       MOSUNNY   28  21  74 CALM      30.28R
KREMMLING      SUNNY     32  27  80 CALM      30.20R
LEADVILLE      SUNNY     31  17  56 CALM      30.26S
MONARCH PASS   MOSUNNY   32  18  55 SW18      30.44R WCI  20
SALIDA         SUNNY     42  26  51 NW12      30.26F
SUNLIGHT       MOSUNNY   37  25  60 CALM      30.28R
WILKERSON PASS SUNNY     36  16  44 W9G18     30.32S
$$

COZ069>075-181500-
...SAN LUIS VALLEY/SANGRE DE CRISTO MOUNTAINS...

CITY           SKY/WX    TMP DP  RH WIND       PRES   REMARKS
ALAMOSA        PTSUNNY   37  26  64 CALM      30.23R
LA VETA PASS   SUNNY     34  21  60 SW7       30.27R WCI  28
SAGUACHE       NOT AVBL
$$

COZ035-036-038>040-181500-
...NORTHERN COLORADO FRONT RANGE...

CITY           SKY/WX    TMP DP  RH WIND       PRES   REMARKS
DENVER INTL AP PTSUNNY   54  28  36 S14       30.00S
DMNS CITY PARK   N/A     52  27  38 S6G12     30.00S
AURORA         PTSUNNY   50  27  40 S10       30.03R
FRONT RANGE AP MOSUNNY   55  27  33 SW14      30.02
ERIE MUNI ARPT PTSUNNY   42  35  76 CALM      30.00S
BOULDER MUN AP PTSUNNY   45  32  61 SE3       29.99S
CENTENNIAL     MOSUNNY   53  27  36 S7        30.03R
BROOMFIELD     NOT AVBL
FORT COLLINS   MOSUNNY   43  34  70 CALM      30.01F
LONGMONT       MOSUNNY   47  36  65 CALM      30.02S
$$

COZ041-046-047-076>085-087-088-181500-
...PIKES PEAK/PALMER DIVIDE AND SOUTHERN FOOTHILLS...

CITY           SKY/WX    TMP DP  RH WIND       PRES   REMARKS
COLO. SPRINGS  PTSUNNY   47  37  68 N9        30.08S
A. F. ACADEMY  SUNNY     45  34  66 SW9       30.08R
ELLICOTT       NOT AVBL
FALCON         MOSUNNY   48  33  57 CALM      30.10S
FORT CARSON    SUNNY     43  36  75 N2        30.06R
LIMON          MOSUNNY   36  33  89 CALM      30.06R
MONUMENT HILL  MOSUNNY   50  28  43 S6        30.09R
TRINIDAD       SUNNY     47  32  56 W17       30.10S
$$

COZ042>045-048>051-090-091-181500-
...NORTHEAST COLORADO...

CITY           SKY/WX    TMP DP  RH WIND       PRES   REMARKS
GREELEY ARPT   PTSUNNY   37  30  75 NW3       30.00S
AKRON          MOSUNNY   53  36  52 SW14      29.99S
BURLINGTON     SUNNY     42  36  79 S17       30.06R
WRAY           SUNNY     44  37  74 S7        30.03S
STERLING       MOSUNNY   45  39  81 SW6       29.99R
HOLYOKE        SUNNY     43  36  75 S10       30.01F
FORT MORGAN    MOSUNNY   41  36  81 CALM      30.00S
$$

COZ086-089-092>099-181500-
...SOUTHEAST COLORADO...

CITY           SKY/WX    TMP DP  RH WIND       PRES   REMARKS
PUEBLO         SUNNY     42  36  79 W5        30.06S
LA JUNTA       SUNNY     41  35  79 W10       30.07R
LAMAR          SUNNY     46  36  68 VRB3      30.05S
SPRINGFIELD      N/A     44  36  73 S20G28    30.07S
$$



USA.gov is the U.S. government's official web portal to all federal, state and local government web resources and services.